GW5467 Weather Reports


Display with metric or nautical units.
time (UTC)temp
F
wind
direction
speed
MPH
gust
MPH
rain 1hr
in
rain 24hr
in
rain mn
in
humidity
%
barometer
mb
20260906231230 65 285 2.0 2.0 0.00 0.06 0.06 74 1016.9
20260906230729 66 321 4.0 4.0 0.00 0.06 0.06 72 1017.1
20260906230224 65 311 2.0 3.0 0.00 0.06 0.06 74 1017.0
20260906225722 64 315 2.0 3.0 0.00 0.06 0.06 76 1017.0
20260906225219 64 289 2.0 3.0 0.00 0.06 0.06 76 1017.1
20260906224713 63 307 4.0 6.0 0.00 0.06 0.06 77 1017.3
20260906224210 62 295 3.0 3.0 0.00 0.06 0.06 77 1017.2
20260906223707 63 292 3.0 4.0 0.00 0.06 0.06 76 1017.4
20260906223207 63 279 2.0 2.0 0.00 0.06 0.06 77 1017.4
20260906222704 63 249 4.0 4.0 0.00 0.06 0.06 77 1017.3
20260906222203 63 284 4.0 4.0 0.00 0.06 0.06 77 1017.4
20260906221701 63 285 2.0 3.0 0.00 0.06 0.06 79 1017.4
20260906221155 62 258 6.0 7.0 0.00 0.06 0.06 78 1017.4
20260906220651 62 314 4.0 4.0 0.00 0.06 0.06 79 1017.4
20260906220147 62 275 2.0 3.0 0.00 0.06 0.06 80 1017.4
20260906215646 62 279 4.0 4.0 0.00 0.06 0.06 80 1017.5
20260906215144 62 308 2.0 3.0 0.00 0.06 0.06 82 1017.6
20260906214643 62 244 3.0 3.0 0.00 0.06 0.06 81 1017.4
20260906214138 62 274 3.0 3.0 0.00 0.06 0.06 82 1017.4
20260906213637 62 251 4.0 6.0 0.00 0.06 0.06 82 1017.3
20260906213132 62 234 4.0 6.0 0.00 0.06 0.06 82 1017.3
20260906212629 62 250 4.0 4.0 0.00 0.06 0.06 82 1017.4
20260906212125 63 252 3.0 4.0 0.00 0.06 0.06 81 1017.2
20260906211624 63 275 2.0 2.0 0.00 0.06 0.06 80 1017.1
20260906211120 63 310 4.0 4.0 0.00 0.06 0.06 77 1017.0
20260906210616 63 79 3.0 3.0 0.00 0.06 0.06 77 1017.0
20260906210110 63 38 4.0 6.0 0.00 0.06 0.06 77 1017.3
20260906205606 63 66 2.0 3.0 0.00 0.06 0.06 78 1017.2
20260906205102 63 56 3.0 3.0 0.00 0.06 0.06 77 1017.3
20260906204601 63 50 4.0 4.0 0.00 0.06 0.06 76 1017.3
20260906204056 63 86 4.0 4.0 0.00 0.06 0.06 76 1017.1
20260906203555 63 89 6.0 7.0 0.00 0.06 0.06 76 1017.5
20260906203051 63 85 5.0 7.0 0.00 0.06 0.06 76 1017.3
20260906202547 63 91 5.0 7.0 0.00 0.06 0.06 76 1017.2
20260906202048 63 109 2.0 2.0 0.00 0.06 0.06 77 1017.2
20260906201548 63 65 3.0 4.0 0.00 0.06 0.06 76 1017.4
20260906201047 63 80 5.0 7.0 0.00 0.06 0.06 76 1017.5
20260906200543 63 89 6.0 7.0 0.00 0.06 0.06 75 1017.4
20260906200039 63 75 6.0 7.0 0.00 0.06 0.06 75 1017.5
20260906195534 64 98 4.0 4.0 0.00 0.06 0.06 76 1017.3
20260906195031 63 86 4.0 6.0 0.00 0.06 0.06 75 1017.3
20260906194526 63 86 3.0 4.0 0.00 0.06 0.06 76 1017.6
20260906194022 63 75 3.0 3.0 0.00 0.06 0.06 75 1017.4
20260906193521 63 91 2.0 2.0 0.00 0.06 0.06 75 1017.7
20260906193017 63 92 2.0 2.0 0.00 0.06 0.06 73 1017.5
20260906192512 63 115 2.0 3.0 0.00 0.06 0.06 74 1017.5
20260906192011 63 130 4.0 4.0 0.00 0.06 0.06 74 1017.6
20260906191506 63 91 1.0 1.0 0.00 0.06 0.06 73 1017.5
20260906191005 63 73 4.0 6.0 0.00 0.06 0.06 74 1017.7
20260906190505 64 75 6.0 7.0 0.00 0.06 0.06 74 1017.5
20260906185959 64 79 2.0 3.0 0.00 0.06 0.06 73 1017.4
20260906185458 63 84 3.0 6.0 0.00 0.06 0.06 74 1017.7
20260906184957 63 66 3.0 4.0 0.00 0.06 0.06 77 1017.6
20260906184453 63 67 6.0 8.0 0.00 0.06 0.06 76 1017.7
20260906183948 63 88 6.0 8.0 0.00 0.06 0.06 78 1017.7
20260906183444 63 90 3.0 3.0 0.00 0.06 0.06 81 1017.5
20260906182940 62 79 6.0 8.0 0.00 0.06 0.06 82 1017.4
20260906182435 62 86 4.0 6.0 0.00 0.06 0.06 82 1017.4
20260906181931 61 72 5.0 6.0 0.00 0.06 0.06 85 1017.7
20260906181427 61 54 3.0 4.0 0.00 0.06 0.06 85 1017.8
20260906180922 61 33 5.0 6.0 0.00 0.06 0.06 86 1017.8
20260906180417 60 88 5.0 7.0 0.00 0.06 0.06 86 1018.1
20260906175915 59 62 3.0 6.0 0.00 0.06 0.06 87 1018.1
20260906175410 59 7 6.0 7.0 0.00 0.06 0.06 87 1018.2
20260906174908 58 66 7.0 8.0 0.00 0.06 0.06 90 1018.2
20260906174408 57 9 3.0 4.0 0.00 0.06 0.06 91 1018.3
20260906173903 57 329 4.0 6.0 0.00 0.06 0.06 92 1018.5
20260906173358 56 72 6.0 8.0 0.00 0.06 0.06 92 1018.6
20260906172857 56 57 7.0 9.0 0.05 0.06 0.06 92 1018.7
20260906172354 56 47 4.0 6.0 0.05 0.06 0.06 93 1018.6
20260906171848 55 70 4.0 6.0 0.00 0.05 0.05 93 1018.7
20260906171343 55 0 5.0 6.0 0.00 0.05 0.05 93 1019.4
20260906170839 55 327 6.0 8.0 0.07 0.05 0.05 93 1019.8
20260906170335 55 322 8.0 10.0 0.07 0.05 0.05 92 1019.7
20260906165831 55 285 6.0 8.0 0.00 0.04 0.04 92 1019.8
20260906165330 55 330 5.0 7.0 0.00 0.04 0.04 93 1019.7
20260906164825 55 271 2.0 3.0 0.00 0.04 0.04 93 1019.7
20260906164325 56 330 4.0 4.0 0.00 0.04 0.04 94 1019.8
20260906163821 56 248 2.0 2.0 0.00 0.04 0.04 94 1019.7
20260906163317 56 273 1.0 2.0 0.00 0.04 0.04 94 1019.4
20260906162814 56 282 0.0 1.0 0.00 0.04 0.04 94 1019.5
20260906162313 56 359 1.0 1.0 0.00 0.04 0.04 93 1019.4
20260906161808 55 358 3.0 3.0 0.00 0.04 0.04 93 1019.5
20260906161308 55 356 4.0 4.0 0.00 0.04 0.04 93 1019.3
20260906160807 55 346 4.0 4.0 0.00 0.04 0.04 92 1019.3
20260906160301 55 352 6.0 7.0 0.00 0.04 0.04 92 1019.2
20260906155759 54 326 6.0 8.0 0.00 0.04 0.04 93 1019.3
20260906155253 54 349 4.0 4.0 0.07 0.04 0.04 94 1019.5
20260906154749 54 3 5.0 7.0 0.07 0.04 0.04 94 1019.6
20260906154244 53 331 3.0 3.0 0.05 0.03 0.03 93 1019.7
20260906153742 53 337 8.0 9.0 0.05 0.03 0.03 93 1019.9
20260906153237 53 344 6.0 7.0 0.00 0.02 0.02 93 1019.9
20260906152732 53 336 6.0 9.0 0.00 0.02 0.02 93 1019.8
20260906152226 53 326 9.0 10.0 0.00 0.02 0.02 93 1019.7
20260906151726 53 342 8.0 10.0 0.07 0.02 0.02 93 1019.8
20260906151222 53 303 6.0 8.0 0.07 0.02 0.02 94 1019.9
20260906150718 53 313 6.0 7.0 0.00 0.01 0.01 94 1019.8
20260906150212 53 323 7.0 9.0 0.00 0.01 0.01 94 1019.8
20260906145711 53 266 4.0 6.0 0.00 0.01 0.01 94 1020.2
20260906145206 53 350 9.0 11.0 0.00 0.01 0.01 94 1020.1
20260906144706 53 342 9.0 11.0 0.00 0.01 0.01 93 1020.1
20260906144201 53 322 8.0 13.0 0.05 0.01 0.01 93 1020.3
20260906143700 53 328 10.0 13.0 0.05 0.01 0.01 93 1020.4
20260906143158 53 317 10.0 15.0 0.00 0.00 0.00 93 1020.4
20260906142657 53 320 7.0 9.0 0.00 0.00 0.00 93 1020.4
20260906142152 54 288 15.0 21.0 0.00 0.00 0.00 91 1020.7
20260906141651 56 282 6.0 7.0 0.00 0.00 0.00 90 1020.4
20260906141146 56 241 5.0 7.0 0.00 0.00 0.00 88 1020.1
20260906140645 57 309 1.0 2.0 0.00 0.00 0.00 86 1020.2
20260906140141 59 306 2.0 3.0 0.00 0.00 0.00 85 1020.3
20260906135637 59 97 1.0 1.0 0.00 0.00 0.00 85 1019.9
20260906135133 59 71 2.0 3.0 0.00 0.00 0.00 85 1019.7
20260906134630 59 53 4.0 4.0 0.00 0.00 0.00 85 1019.6
20260906134130 59 76 4.0 4.0 0.00 0.00 0.00 84 1019.2
20260906133626 59 74 4.0 6.0 0.00 0.00 0.00 84 1019.4
20260906133120 59 30 4.0 4.0 0.00 0.00 0.00 83 1019.4
20260906132615 59 73 4.0 6.0 0.00 0.00 0.00 82 1019.4
20260906132111 59 87 6.0 7.0 0.00 0.00 0.00 81 1019.3
20260906131607 59 53 5.0 7.0 0.00 0.00 0.00 81 1019.4
20260906131102 59 73 3.0 3.0 0.00 0.00 0.00 80 1019.6
20260906130601 59 4 3.0 3.0 0.00 0.00 0.00 80 1019.6
20260906130057 59 65 2.0 3.0 0.00 0.00 0.00 81 1019.6
20260906125554 59 283 0.0 0.0 0.00 0.00 0.00 81 1019.6
20260906125054 59 38 2.0 2.0 0.00 0.00 0.00 82 1019.6
20260906124550 60 11 3.0 4.0 0.00 0.00 0.00 82 1019.7
20260906124045 60 72 5.0 7.0 0.00 0.00 0.00 81 1019.6
20260906123544 60 16 8.0 10.0 0.00 0.00 0.00 79 1019.4
20260906123039 60 41 9.0 10.0 0.00 0.00 0.00 80 1019.3
20260906122532 60 53 5.0 6.0 0.00 0.00 0.00 80 1019.5
20260906122029 56 357 6.0 8.0 0.00 0.00 0.00 87 1019.8
20260906121525 55 352 8.0 9.0 0.00 0.00 0.00 88 1019.7
20260906121021 56 337 9.0 9.0 0.00 0.00 0.00 88 1019.5
20260906120515 58 345 7.0 8.0 0.00 0.00 0.00 86 1019.7
20260906120014 58 26 4.0 8.0 0.00 0.00 0.00 85 1019.3
20260906115514 58 89 8.0 10.0 0.00 0.00 0.00 85 1019.4
20260906115013 57 74 3.0 3.0 0.00 0.00 0.00 86 1019.6
20260906114508 57 62 2.0 2.0 0.00 0.00 0.00 86 1019.8
20260906114004 56 38 2.0 2.0 0.00 0.00 0.00 85 1019.8
20260906113502 55 299 0.0 1.0 0.00 0.00 0.00 86 1020.1
20260906112958 55 320 1.0 1.0 0.00 0.00 0.00 86 1020.3
20260906112453 55 0 0.0 1.0 0.00 0.00 0.00 85 1019.8
20260906111949 55 54 1.0 1.0 0.00 0.00 0.00 85 1019.9
20260906111448 55 44 2.0 2.0 0.00 0.00 0.00 85 1019.7
20260906110943 55 46 2.0 3.0 0.00 0.00 0.00 84 1019.8
20260906110439 55 6 3.0 4.0 0.00 0.00 0.00 84 1019.5
20260906105937 56 61 3.0 6.0 0.00 0.00 0.00 83 1019.6
20260906105433 56 51 6.0 7.0 0.00 0.00 0.00 83 1019.4
20260906104930 56 62 5.0 7.0 0.00 0.00 0.00 83 1019.6
20260906104428 56 47 4.0 7.0 0.00 0.00 0.00 83 1019.6
20260906103927 57 56 4.0 4.0 0.00 0.00 0.00 82 1019.6
20260906103425 57 50 4.0 6.0 0.00 0.00 0.00 82 1019.8
20260906102921 57 32 4.0 6.0 0.00 0.00 0.00 83 1019.7
20260906102421 57 45 5.0 6.0 0.00 0.00 0.00 83 1019.8
20260906101915 57 73 6.0 9.0 0.00 0.00 0.00 83 1019.8
20260906101411 55 5 6.0 7.0 0.00 0.00 0.00 86 1019.6
20260906100906 55 25 1.0 1.0 0.00 0.00 0.00 89 1019.6
20260906100406 55 1 1.0 1.0 0.00 0.00 0.00 89 1019.8
20260906095900 56 1 2.0 2.0 0.00 0.00 0.00 89 1019.8
20260906095356 56 346 2.0 3.0 0.00 0.00 0.00 89 1019.8
20260906094855 56 2 4.0 6.0 0.00 0.00 0.00 88 1019.7
20260906094350 56 359 5.0 7.0 0.00 0.00 0.00 88 1019.7
20260906093847 56 355 4.0 6.0 0.00 0.00 0.00 88 1019.7
20260906093343 56 8 6.0 10.0 0.00 0.00 0.00 88 1019.8
20260906092843 56 348 5.0 7.0 0.00 0.00 0.00 89 1019.9
20260906092337 55 24 8.0 9.0 0.00 0.00 0.00 90 1020.1
20260906091833 56 41 7.0 9.0 0.00 0.00 0.00 90 1020.2
20260906091329 56 358 10.0 11.0 0.00 0.00 0.00 89 1020.2
20260906090825 56 1 9.0 10.0 0.00 0.00 0.00 89 1020.3
20260906090324 56 356 13.0 15.0 0.00 0.00 0.00 88 1020.4
20260906085825 56 333 13.0 17.0 0.00 0.00 0.00 87 1020.7
20260906085324 56 320 8.0 9.0 0.00 0.00 0.00 87 1020.8
20260906084819 56 331 9.0 10.0 0.00 0.00 0.00 88 1021.1
20260906084318 57 345 12.0 15.0 0.00 0.00 0.00 87 1021.1
20260906083813 57 337 9.0 11.0 0.00 0.00 0.00 86 1021.1
20260906083308 57 350 6.0 8.0 0.00 0.00 0.00 86 1021.2
20260906082803 56 284 12.0 14.0 0.00 0.00 0.00 88 1020.7
20260906082258 55 315 10.0 13.0 0.00 0.00 0.00 90 1020.9
20260906081754 55 315 10.0 13.0 0.00 0.00 0.00 91 1021.5
20260906081249 55 256 10.0 11.0 0.00 0.00 0.00 91 1021.5
20260906080745 55 266 3.0 3.0 0.00 0.00 0.00 90 1021.3
20260906080242 56 297 4.0 4.0 0.00 0.00 0.00 89 1020.7
20260906075741 56 238 1.0 2.0 0.00 0.00 0.00 89 1020.5
20260906075241 57 211 1.0 1.0 0.00 0.00 0.00 88 1020.2
20260906074737 57 296 1.0 2.0 0.00 0.00 0.00 87 1020.4
20260906074236 57 14 4.0 4.0 0.00 0.00 0.00 87 1020.5
20260906073736 57 355 3.0 4.0 0.00 0.00 0.00 87 1020.5
20260906073231 57 13 4.0 6.0 0.00 0.00 0.00 87 1020.5
20260906072726 56 38 4.0 6.0 0.00 0.00 0.00 88 1020.4
20260906072222 56 48 6.0 8.0 0.00 0.00 0.00 89 1020.4
20260906071718 56 358 8.0 10.0 0.00 0.00 0.00 89 1020.7
20260906071218 56 13 9.0 10.0 0.00 0.00 0.00 89 1020.6
20260906070715 56 17 9.0 10.0 0.00 0.00 0.00 89 1020.9
20260906070210 56 6 10.0 14.0 0.00 0.00 0.00 89 1020.8
20260906065709 56 44 9.0 11.0 0.00 0.00 0.00 88 1020.8
20260906065205 56 4 10.0 11.0 0.00 0.00 0.00 88 1020.9
20260906064701 56 13 7.0 9.0 0.00 0.00 0.00 88 1021.2
20260906064201 56 352 8.0 9.0 0.00 0.00 0.00 88 1021.3
20260906063656 56 355 10.0 10.0 0.00 0.00 0.00 89 1021.4
20260906063152 56 11 11.0 16.0 0.00 0.00 0.00 89 1021.6
20260906062648 56 321 11.0 13.0 0.00 0.00 0.00 89 1021.6
20260906062146 56 342 11.0 14.0 0.00 0.00 0.00 89 1021.6
20260906061642 56 344 6.0 10.0 0.00 0.00 0.00 89 1021.7
20260906061143 56 305 8.0 11.0 0.00 0.00 0.00 89 1021.6
20260906060639 56 304 4.0 4.0 0.00 0.00 0.00 87 1021.8
20260906060136 56 16 4.0 6.0 0.00 0.00 0.00 87 1021.5
20260906055632 56 0 10.0 10.0 0.00 0.10 0.10 87 1021.2
20260906055127 56 2 10.0 11.0 0.00 0.10 0.10 87 1021.2
20260906054622 56 342 9.0 9.0 0.00 0.10 0.10 86 1021.5
20260906054117 56 323 6.0 7.0 0.00 0.10 0.10 88 1021.2
20260906053614 56 331 7.0 9.0 0.00 0.10 0.10 88 1020.9
20260906053114 56 9 5.0 7.0 0.00 0.10 0.10 88 1021.3
20260906052609 56 354 5.0 7.0 0.00 0.10 0.10 87 1021.3
20260906052106 57 344 9.0 10.0 0.00 0.10 0.10 85 1021.2
20260906051602 57 357 8.0 9.0 0.00 0.10 0.10 81 1021.2
20260906051057 56 337 6.0 8.0 0.00 0.10 0.10 84 1021.2
20260906050552 56 10 9.0 13.0 0.00 0.10 0.10 86 1021.4
20260906050047 56 338 9.0 11.0 0.00 0.10 0.10 87 1021.3
20260906045545 56 326 6.0 9.0 0.07 0.10 0.10 89 1021.5
20260906045041 57 330 4.0 6.0 0.07 0.10 0.10 88 1021.3
20260906044536 57 2 8.0 9.0 0.00 0.09 0.09 83 1020.4
20260906044032 57 14 3.0 3.0 0.00 0.09 0.09 84 1021.5
20260906043527 57 353 2.0 2.0 0.00 0.09 0.09 86 1021.8
20260906043024 57 340 3.0 3.0 0.00 0.09 0.09 87 1021.3
20260906042522 56 16 4.0 6.0 0.00 0.09 0.09 87 1020.5
20260906042017 56 27 3.0 3.0 0.00 0.09 0.09 88 1020.7
20260906041514 56 354 6.0 7.0 0.00 0.09 0.09 89 1020.4
20260906041013 56 337 9.0 10.0 0.00 0.09 0.09 89 1020.4
20260906040508 56 343 11.0 13.0 0.00 0.09 0.09 88 1020.6
20260906040004 56 339 6.0 7.0 0.00 0.09 0.09 88 1020.7
20260906035458 56 357 10.0 14.0 0.00 0.09 0.09 88 1020.5
20260906034954 56 22 11.0 13.0 0.00 0.09 0.09 87 1020.6
20260906034454 56 336 9.0 11.0 0.00 0.09 0.09 87 1021.1
20260906033949 57 353 6.0 8.0 0.05 0.09 0.09 87 1021.3
20260906033444 57 354 9.0 10.0 0.17 0.09 0.09 86 1021.5
20260906032940 57 326 4.0 4.0 0.19 0.08 0.08 84 1021.8
20260906032437 59 343 5.0 6.0 0.07 0.06 0.06 79 1021.6
20260906031936 60 247 1.0 1.0 0.00 0.05 0.05 73 1022.2
20260906031431 60 220 0.0 1.0 0.00 0.05 0.05 69 1022.0
20260906030927 60 202 2.0 2.0 0.00 0.05 0.05 68 1021.6
20260906030421 60 325 2.0 2.0 0.00 0.05 0.05 68 1020.8
20260906025916 60 317 2.0 2.0 0.00 0.05 0.05 67 1020.4
20260906025410 60 17 3.0 3.0 0.00 0.05 0.05 67 1020.1
20260906024909 60 5 4.0 6.0 0.00 0.05 0.05 68 1019.8
20260906024408 60 43 3.0 6.0 0.00 0.05 0.05 67 1019.5
20260906023904 60 57 3.0 4.0 0.00 0.05 0.05 67 1019.5
20260906023401 61 26 3.0 3.0 0.00 0.05 0.05 67 1019.2
20260906022900 61 305 5.0 7.0 0.00 0.05 0.05 66 1019.2
20260906022355 61 24 5.0 7.0 0.00 0.05 0.05 66 1019.3
20260906021851 61 333 5.0 6.0 0.00 0.05 0.05 66 1019.3
20260906021350 61 4 7.0 8.0 0.00 0.05 0.05 66 1019.3
20260906020845 62 2 7.0 10.0 0.00 0.05 0.05 65 1019.4
20260906020344 62 345 4.0 4.0 0.00 0.05 0.05 65 1019.3
20260906015840 62 12 5.0 6.0 0.00 0.05 0.05 64 1019.2
20260906015339 62 12 7.0 9.0 0.00 0.05 0.05 65 1019.4
20260906014838 63 9 6.0 6.0 0.00 0.05 0.05 64 1019.3
20260906014333 63 358 6.0 7.0 0.00 0.05 0.05 64 1019.2
20260906013830 63 3 6.0 7.0 0.00 0.05 0.05 64 1019.5
20260906013325 64 350 4.0 6.0 0.00 0.05 0.05 64 1019.3
20260906012820 64 340 6.0 7.0 0.00 0.05 0.05 62 1019.3
20260906012320 64 1 6.0 7.0 0.00 0.05 0.05 62 1019.3
20260906011815 64 47 4.0 4.0 0.00 0.05 0.05 62 1019.2
20260906011309 64 339 6.0 9.0 0.00 0.05 0.05 63 1019.2
20260906010805 64 26 8.0 9.0 0.00 0.05 0.05 63 1019.3
20260906010301 64 349 9.0 10.0 0.00 0.05 0.05 62 1019.3
20260906005756 64 340 9.0 11.0 0.00 0.05 0.05 63 1019.4
20260906005255 64 12 7.0 8.0 0.00 0.05 0.05 63 1019.3
20260906004754 64 351 10.0 13.0 0.00 0.05 0.05 62 1019.4
20260906004250 65 6 9.0 11.0 0.00 0.05 0.05 62 1019.4
20260906003749 65 359 8.0 11.0 0.00 0.05 0.05 60 1019.4
20260906003245 66 358 5.0 6.0 0.00 0.05 0.05 59 1019.2
20260906002740 67 331 7.0 9.0 0.00 0.05 0.05 57 1019.5
20260906002240 68 328 9.0 15.0 0.00 0.05 0.05 55 1019.4
20260906001736 68 357 11.0 14.0 0.00 0.05 0.05 55 1019.6
20260906001231 69 8 9.0 11.0 0.00 0.05 0.05 54 1019.6
20260906000726 69 15 9.0 11.0 0.00 0.05 0.05 53 1019.3
20260906000221 69 343 7.0 9.0 0.00 0.05 0.05 53 1019.3
20260905235721 69 338 9.0 9.0 0.00 0.05 0.05 52 1019.4
20260905235215 69 324 9.0 11.0 0.00 0.05 0.05 52 1019.5
20260905234711 69 324 8.0 10.0 0.00 0.05 0.05 53 1019.8
20260905234206 69 357 10.0 11.0 0.00 0.05 0.05 52 1019.7
20260905233701 69 330 10.0 11.0 0.00 0.05 0.05 53 1019.7
20260905233201 70 338 12.0 17.0 0.00 0.05 0.05 51 1019.5
20260905232656 72 292 3.0 3.0 0.00 0.05 0.05 45 1019.5
20260905232152 71 331 3.0 3.0 0.00 0.05 0.05 45 1019.6
20260905231647 71 268 3.0 3.0 0.00 0.05 0.05 47 1019.6